Location: Écuvilly
(49.6505°N, 2.9206°E)
Time: 17:30:17
(UTC+00:00)

ARIANE 5 R/B - Pass Details

Date: 17 November 2025
Orbit: 747 x 792 km, 98.8° (Epoch: 10 December)

Event Time Altitude Azimuth Distance (km) Brightness Sun altitude
Rises 16:40:04 0° 147° (SSE) 3,181 5.6 -6.3°
Reaches altitude 10° 16:42:24 10° 142° (SE) 2,261 4.8 -6.6°
Maximum altitude 16:47:11 51° 68° (ENE) 942 2.6 -7.3°
Drops below altitude 10° 16:52:02 10° 354° (N) 2,286 4.8 -8.1°
Sets 16:54:23 0° 349° (N) 3,220 5.6 -8.4°
